Weather History for Naples, FL

Change the Weather History Date:

Friday, April 6, 2012

  Actual Average Record
Temperature  
Mean Temperature 76 °F 72 °F  
Max Temperature 82 °F 82 °F 89 °F (1981)
Min Temperature 69 °F 62 °F 40 °F (1987)
Degree Days  
Heating Degree Days 0 0  
Month to date heating degree days 0 0  
Since 1 July heating degree days 121 256  
Cooling Degree Days 11 7  
Month to date cooling degree days 64 42  
Year to date cooling degree days 606 409  
Growing Degree Days 25 (Base 50)    
Moisture  
Dew Point 68 °F    
Average Humidity 77    
Maximum Humidity 100    
Minimum Humidity 54    
Precipitation  
Precipitation 0.76 in 0.08 in 2.05 in (2008)
Month to date precipitation 0.80 0.49  
Year to date precipitation 5.18 6.82  
Snow  
Snow 0.00 in - - ()
Month to date snowfall 0.0  
Since 1 July snowfall 0.0  
Snow Depth 0.00 in    
Sea Level Pressure  
Sea Level Pressure 29.84 in    
Wind  
Wind Speed 12 mph (West)    
Max Wind Speed 33 mph    
Max Gust Speed 47 mph    
Visibility 8 miles    
Events Fog , Rain , Thunderstorm    
T = Trace of Precipitation, MM = Missing Value Source: NWS Daily Summary

Daily Weather History Graph

Daily Weather History Graph

Search for Another Location

Airport:

Trip Planner

Search our weather history database for the weather conditions in past years. The results will help you decide how hot, cold, wet, or windy it might be!

Date:

Astronomy

Apr. 06, 2012 Rise Set
Actual Time 7:12 AM EDT 7:46 PM EDT
Civil Twilight 6:49 AM EDT 8:09 PM EDT
Nautical Twilight 6:21 AM EDT 8:37 PM EDT
Astronomical Twilight 5:54 AM EDT 9:05 PM EDT
Moon 7:57 PM EDT (4/6) 6:46 AM EDT (4/6)
Length of Visible Light 13h 20m
Length of Day
12h 34m
Full, 100% of the Moon is Illuminated
Apr 6
Full
Apr 6
Full
Apr 13
Last Quarter
Apr 21
New
Apr 29
First Quarter

Hourly Weather History & Observations

Time (EDT) Temp. Heat Index Dew Point Humidity Pressure Visibility Wind Dir Wind Speed Gust Speed Precip Events Conditions
12:53 AM 77.0 °F - 69.1 °F 76% 29.83 in 10.0 mi SW 26.5 mph 32.2 mph N/A   Partly Cloudy
1:53 AM 79.0 °F - 62.1 °F 56% 29.79 in 10.0 mi SW 17.3 mph 20.7 mph N/A   Clear
2:53 AM 78.1 °F - 63.0 °F 60% 29.76 in 10.0 mi SW 8.1 mph - N/A   Clear
3:53 AM 80.1 °F 81.5 °F 63.0 °F 56% 29.76 in 10.0 mi WSW 11.5 mph - N/A   Clear
4:53 AM 80.1 °F 81.7 °F 64.0 °F 58% 29.78 in 10.0 mi WSW 12.7 mph - N/A   Clear
5:53 AM 79.0 °F - 64.9 °F 62% 29.78 in 10.0 mi WSW 13.8 mph - N/A   Scattered Clouds
6:53 AM 78.1 °F - 66.0 °F 66% 29.80 in 10.0 mi SW 17.3 mph 23.0 mph N/A   Mostly Cloudy
7:53 AM 79.0 °F - 66.9 °F 66% 29.83 in 10.0 mi SW 15.0 mph - N/A   Mostly Cloudy
8:53 AM 79.0 °F - 69.1 °F 72% 29.83 in 10.0 mi WSW 17.3 mph 25.3 mph N/A   Overcast
9:36 AM 78.8 °F - 69.8 °F 74% 29.84 in 10.0 mi WSW 12.7 mph - N/A Thunderstorm Overcast
9:42 AM 77.0 °F - 71.6 °F 83% 29.86 in 0.5 mi West 33.4 mph 47.2 mph 0.16 in Rain , Thunderstorm Heavy Thunderstorms and Rain
9:47 AM 69.8 °F - 69.8 °F 100% 29.87 in 0.2 mi West 12.7 mph 47.2 mph 0.33 in Fog , Rain , Thunderstorm Heavy Thunderstorms and Rain
9:53 AM 71.1 °F - 71.1 °F 100% 29.86 in 0.8 mi West 13.8 mph 21.9 mph 0.35 in Rain , Thunderstorm Thunderstorms and Rain
9:57 AM 71.6 °F - 71.6 °F 100% 29.85 in 2.0 mi West 11.5 mph 20.7 mph 0.04 in Rain , Thunderstorm Heavy Thunderstorms and Rain
10:04 AM 73.4 °F - - N/A% 29.85 in 1.5 mi WSW 15.0 mph 20.7 mph 0.08 in Rain , Thunderstorm Thunderstorms and Rain
10:14 AM 73.4 °F - 69.8 °F 88% 29.86 in 1.0 mi WSW 19.6 mph 28.8 mph 0.24 in Rain Heavy Rain
10:19 AM 73.4 °F - 69.8 °F 88% 29.86 in 0.5 mi West 13.8 mph 26.5 mph 0.40 in Fog , Rain Heavy Rain
10:24 AM 73.4 °F - 69.8 °F 88% 29.86 in 0.8 mi West 6.9 mph 25.3 mph 0.40 in Rain , Thunderstorm Rain
10:27 AM 73.4 °F - 69.8 °F 88% 29.86 in 1.2 mi West 6.9 mph - 0.40 in Rain , Thunderstorm Light Rain
10:29 AM 73.4 °F - 69.8 °F 88% 29.86 in 4.0 mi West 8.1 mph - 0.40 in Rain , Thunderstorm Light Rain
10:38 AM 73.4 °F - 69.8 °F 88% 29.86 in 10.0 mi West 8.1 mph - 0.40 in Thunderstorm Overcast
10:53 AM 73.9 °F - 69.6 °F 86% 29.86 in 5.0 mi WSW 11.5 mph 17.3 mph 0.41 in Rain Light Rain
11:04 AM 75.2 °F - 71.6 °F 89% 29.86 in 10.0 mi WSW 8.1 mph - 0.00 in   Overcast
11:28 AM 75.2 °F - 71.6 °F 89% 29.85 in 10.0 mi WSW 16.1 mph 23.0 mph 0.00 in   Overcast
11:53 AM 80.1 °F 83.8 °F 72.0 °F 76% 29.85 in 8.0 mi West 19.6 mph 27.6 mph 0.00 in   Overcast
12:08 PM 80.6 °F 84.6 °F 71.6 °F 74% 29.85 in 8.0 mi WSW 17.3 mph 25.3 mph N/A   Overcast
12:53 PM 80.1 °F 83.8 °F 71.8 °F 76% 29.85 in 9.0 mi WNW 13.8 mph 25.3 mph N/A   Overcast
1:06 PM 77.0 °F - 68.0 °F 74% 29.84 in 7.0 mi WNW 12.7 mph - 0.00 in Rain Light Rain
1:53 PM 77.0 °F - 68.7 °F 75% 29.84 in 9.0 mi WNW 12.7 mph 21.9 mph 0.00 in   Mostly Cloudy
2:05 PM 80.6 °F 83.9 °F 69.8 °F 70% 29.84 in 10.0 mi NW 13.8 mph 23.0 mph N/A   Mostly Cloudy
2:18 PM 80.6 °F 83.9 °F 69.8 °F 70% 29.83 in 10.0 mi WNW 16.1 mph 20.7 mph N/A   Mostly Cloudy
2:53 PM 81.0 °F 84.4 °F 70.0 °F 69% 29.83 in 10.0 mi WNW 13.8 mph 21.9 mph N/A   Clear
3:53 PM 81.0 °F 84.9 °F 71.1 °F 72% 29.81 in 10.0 mi NW 15.0 mph - N/A   Scattered Clouds
4:00 PM 80.6 °F 84.6 °F 71.6 °F 74% 29.81 in 10.0 mi WNW 11.5 mph 21.9 mph N/A   Mostly Cloudy
4:17 PM 80.6 °F 83.9 °F 69.8 °F 70% 29.81 in 10.0 mi NW 15.0 mph 23.0 mph N/A   Mostly Cloudy
4:53 PM 80.1 °F 83.2 °F 70.0 °F 71% 29.82 in 10.0 mi NW 15.0 mph 24.2 mph N/A   Mostly Cloudy
5:53 PM 80.1 °F 82.1 °F 66.0 °F 62% 29.82 in 10.0 mi NW 13.8 mph 24.2 mph N/A   Mostly Cloudy
6:00 PM 80.6 °F 82.7 °F 66.2 °F 61% 29.82 in 10.0 mi NW 16.1 mph 21.9 mph N/A   Clear
6:53 PM 78.1 °F - 66.9 °F 68% 29.83 in 10.0 mi NW 9.2 mph 17.3 mph N/A   Clear
7:53 PM 77.0 °F - 61.0 °F 58% 29.85 in 10.0 mi NW 11.5 mph 18.4 mph N/A   Clear
8:53 PM 75.9 °F - 57.9 °F 54% 29.88 in 10.0 mi NW 8.1 mph - N/A   Clear
9:53 PM 73.9 °F - 60.1 °F 62% 29.91 in 10.0 mi NNW 9.2 mph - N/A   Clear
10:53 PM 73.9 °F - 59.0 °F 59% 29.92 in 10.0 mi NW 8.1 mph - N/A   Clear
11:53 PM 71.1 °F - 57.0 °F 61% 29.94 in 10.0 mi North 4.6 mph - N/A   Clear